Home   Weather   Chinle   Past weeks
Flag for USA

Past Weather in Chinle, Arizona, USA — Yesterday and Last 2 Weeks

Now
36 °F

Clear.


Feels Like: 36 °F
Forecast: 85 / 45 °F
Wind: No wind

Location: Window Rock Airport

Current Time: Jun 24, 2019 at 3:38:44 am

Latest Report: Jun 24, 2019 at 2:53 am


Visibility: 10 mi

Pressure: 29.96 "Hg (24.33 "Hg at 1678m altitude)

Humidity: 48%

Dew Point: 18 °F

Location of ChinleLocation

Past Weather in Chinle — Graph

°F

Chinle Temperature Yesterday

Maximum temperature yesterday: 73 °F (at 3:53 pm)
Minimum temperature yesterday: 35 °F (at 5:53 am)
Average temperature yesterday: 57 °F

High & Low Weather Summary for the Past Weeks

 TemperatureHumidityPressure
High87 °F (Jun 12, 2:53 pm)93% (Jun 18, 5:53 am)30.23 "Hg (Jun 18, 5:53 am)
Low35 °F (Jun 23, 5:53 am)8% (Jun 13, 3:53 pm)29.59 "Hg (Jun 21, 3:53 pm)
Average65 °F32%29.85 "Hg
* Reported Jun 9 1:53 am — Jun 24 1:53 am, Chinle. Weather by CustomWeather, © 2019

Note: Actual official high and low records may vary slightly from our data, if they occured in-between our weather recording intervals... More about our weather records

Advertising

Chinle Weather History for the Previous 24 Hours

Scroll right to see more
 ConditionsComfort  
Time TempWeatherWind HumidityBarometerVisibility
1:53 am
Mon, Jun 24
41 °FClear.No wind41%29.94 "Hg10 mi
12:53 am46 °FClear.No wind35%29.93 "Hg10 mi
11:53 pm
Sun, Jun 23
45 °FClear.7 mph37%29.95 "Hg10 mi
10:53 pm55 °FClear.6 mph23%29.92 "Hg10 mi
9:53 pm56 °FClear.No wind24%29.91 "Hg10 mi
8:53 pm61 °FClear.5 mph20%29.90 "Hg10 mi
7:53 pm70 °FSunny.6 mph13%29.90 "Hg10 mi
6:53 pm72 °FSunny.13 mph12%29.92 "Hg10 mi
5:53 pm73 °FSunny.9 mph12%29.92 "Hg10 mi
4:53 pm73 °FSunny.13 mph10%29.93 "Hg10 mi
3:53 pm73 °FSunny.15 mph9%29.90 "Hg10 mi
2:53 pm72 °FSunny.13 mph9%29.89 "Hg10 mi
1:53 pm72 °FSunny.13 mph9%29.90 "Hg10 mi
12:53 pm70 °FSunny.8 mph10%29.93 "Hg10 mi
11:53 am68 °FSunny.7 mph11%29.93 "Hg10 mi
10:53 am64 °FSunny.5 mph20%29.93 "Hg10 mi
9:53 am61 °FSunny.3 mph20%29.93 "Hg10 mi
8:53 am54 °FSunny.No wind34%29.98 "Hg10 mi
7:53 am44 °FSunny.No wind55%30.01 "Hg10 mi
6:53 am36 °FSunny.No wind75%30.02 "Hg10 mi
5:53 am35 °FClear.No wind75%30.01 "Hg10 mi
4:53 am36 °FClear.No wind73%30.01 "Hg10 mi
3:53 am44 °FClear.6 mph58%29.97 "Hg10 mi
Weather by CustomWeather, © 2019

See weather overview